EDSBEDDS

Guest
Details From EDSB - Karlsruhe Baden Baden
To EDDS - Stuttgart
Flight Number -
Tags decoded
Created
Modified
Stats Distance 56 nm / 104 km
Max Altitude 0 ft / 0 m
Waypoints 4
Social Downloads 0
Likes 0
Share VATSIM

Download

Looking for another format? Having issues loading an existing format? Contact us
Advertisement - Login to hide

Notes

Requested: EDSB GAGSI KRH BADSO 2A EDDS

Route

EDSB GAGSI BADSO EDDS

ID Type Via Altitude Latitude Longitude Leg Dist Tot Dist Heading (true) Name
O EDSB APT - 0 ft / 0 m 48.77926˚ 8.08064˚ - 0 nm - Karlsruhe Baden Baden
GAGSI FIX - 0 ft / 0 m 48.62972˚ 8.46694˚ 17 nm 17 nm 120° / 121° -
BADSO FIX - 0 ft / 0 m 48.82062˚ 8.60466˚ 12 nm 30 nm 25° / 26° -
O EDDS APT - 0 ft / 0 m 48.68988˚ 9.22196˚ 25 nm 56 nm 108° / 108° Stuttgart

Altitude Profile

Advertisement - Login to hide

EDSB

Details ICAO EDSB (FKB)
Name Karlsruhe Baden Baden
Region Germany - Civil
Timezone Europe/Berlin (UTC+2.0)
Stats Elevation 408 ft / 124 m (AMSL)
Location 48.779257° 8.080642°
Runways 1
Magnetic Variation 2.289° E

METAR

EDSB 222020Z 26002KT CAVOK 11/07 Q1026

Decode

TAF

TAF EDSB 221700Z 2218/2318 32006KT CAVOK BECMG 2218/2220 VRB03KT BECMG 2306/2308 02007KT

Decode

Departure Runways

ID Width Length Bearing (true) Bearing (mag) Surface Threshold Offset Overrun Length
03 148 ft / 45 m 9,799 ft / 2,987 m 31.69° 29.40° Asphalt 830 ft / 253 m 115 ft / 35 m
21 148 ft / 45 m 9,799 ft / 2,987 m 211.70° 209.41° Asphalt 830 ft / 253 m 115 ft / 35 m

EDDS

Details ICAO EDDS (STR)
Name Stuttgart
Region Germany - Civil
Timezone Europe/Berlin (UTC+2.0)
Stats Elevation 1,273 ft / 388 m (AMSL)
Location 48.689876° 9.221962°
Runways 1
Magnetic Variation 2.588° E

METAR

EDDS 222020Z 31003KT 9999 FEW046 13/06 Q1026

Decode

TAF

TAF EDDS 221700Z 2218/2318 31010KT 9999 FEW045 BECMG 2219/2221 29003KT BECMG 2307/2309 32008KT

Decode

Destination Runways

ID Width Length Bearing (true) Bearing (mag) Surface Threshold Offset Overrun Length
07 148 ft / 45 m 10,950 ft / 3,337 m 73.96° 71.37° Concrete 981 ft / 299 m 157 ft / 48 m
25 148 ft / 45 m 10,950 ft / 3,337 m 253.99° 251.40° Concrete 0 ft / 0 m 157 ft / 48 m

Approach Navaids

Runway Type Ident Frequency Range Bearing (true) Bearing (mag) Slope Elevation
07 Localiser ISTE 110.90 MHz 18 nm / 33 km 73.99° 71.40° - 1,181 ft / 360 m (AMSL)
07 Glidescope ISTE 110.90 MHz 10 nm / 19 km 73.97° 71.38° 3.00° 1,267 ft / 386 m (AMSL)
07 DME ISTE 115.45 MHz 18 nm / 33 km - - - 1,332 ft / 406 m (AMSL)
25 Localiser ISTW 109.90 MHz 18 nm / 33 km 253.95° 251.36° - 1,267 ft / 386 m (AMSL)
25 Glidescope ISTW 109.90 MHz 10 nm / 19 km 253.97° 251.38° 3.00° 1,181 ft / 360 m (AMSL)
25 DME ISTW 115.45 MHz 18 nm / 33 km - - - 1,332 ft / 406 m (AMSL)

Popular Alternatives